Location: Montreal
(45.5000°N, 73.5833°W)
Time: 03:52:40
(UTC-05:00)

Tiangong 2 - Pass Details

Date: 08 October 2017
Orbit: 386 x 389 km, 42.8° (Epoch: 17 December)

Event Time Altitude Azimuth Distance (km) Brightness Sun altitude
Exits shadow 05:51:30 - 203° (SSW) 1,682 4.0 -13.1°
Reaches altitude 10° 05:52:24 10° 193° (SSW) 1,418 3.7 -13.0°
Maximum altitude 05:54:29 16° 152° (SSE) 1,109 3.7 -12.6°
Drops below altitude 10° 05:56:34 10° 112° (ESE) 1,424 5.0 -12.2°
Sets 05:59:10 0° 90° (E) 2,284 7.2 -11.8°
